Stations météo

réclame
Mon MeteoGroup
Ölands Södra Udde, Suède (2644): Température de l'air & dewpoint: 22.05.2018 12:00:00 - 28.05.2018 12:00:00 (CEST)Ölands Södra Udde, Suède (2644): Vitesse du vent & gusts: 22.05.2018 12:00:00 - 28.05.2018 12:00:00 (CEST)Ölands Södra Udde, Suède (2644): Direction du vent: 22.05.2018 12:00:00 - 28.05.2018 12:00:00 (CEST)Ölands Södra Udde, Suède (2644): reduced air pressure: 22.05.2018 12:00:00 - 28.05.2018 12:00:00 (CEST)Ölands Södra Udde, Suède (2644): visibility: 22.05.2018 12:00:00 - 28.05.2018 12:00:00 (CEST)Ölands Södra Udde, Suède (2644): Quantités de précipitations: 22.05.2018 12:00:00 - 28.05.2018 12:00:00 (CEST)
Date & Time tt [°C] td [°C] ff [km/h] ff [knt] fx [km/h] fx [knt] dd ppp [hPa] vv [km] rr [mm]
28.05.2018 12:00:00 - - - - - - - - - -
28.05.2018 11:00:00 15,9 12,8 24 13 30 16 NE 1027,1 28 0,0
28.05.2018 10:00:00 15,8 12,4 21 11 34 19 NE 1027,1 24 0,0
28.05.2018 09:00:00 15,1 12,0 26 14 34 19 NE 1026,8 25 0,0
28.05.2018 08:00:00 14,6 11,6 26 14 31 17 NE 1026,8 28 0,0
28.05.2018 07:00:00 14,7 11,3 15 8 33 18 NE 1026,8 37 0,0
28.05.2018 06:00:00 13,5 11,0 25 14 33 18 NE 1026,4 37 0,0
28.05.2018 05:00:00 12,7 10,4 16 8 37 20 NNE 1026,5 41 0,0
28.05.2018 04:00:00 13,1 10,3 18 10 40 21 NNE 1026,6 43 0,0
28.05.2018 03:00:00 13,1 10,1 25 13 40 22 NE 1026,6 49 0,0
28.05.2018 02:00:00 13,1 9,7 29 16 40 22 NE 1026,6 47 0,0
28.05.2018 01:00:00 13,3 9,7 29 16 42 23 NE 1026,9 46 0,0
28.05.2018 00:00:00 13,3 9,7 30 16 42 23 NE 1027,2 41 0,0
27.05.2018 23:00:00 13,4 10,2 29 16 37 20 NE 1027,2 48 0,0
27.05.2018 22:00:00 13,9 10,7 27 15 39 21 ENE 1027,2 40 0,0
27.05.2018 21:00:00 13,7 10,9 30 16 39 21 NE 1026,5 39 0,0
27.05.2018 20:00:00 14,6 11,4 29 16 42 23 NE 1026,0 37 0,0
27.05.2018 19:00:00 15,4 11,6 29 16 44 24 NE 1026,0 38 0,0
27.05.2018 18:00:00 16,2 11,4 32 17 46 25 NE 1026,0 39 0,0
27.05.2018 17:00:00 16,4 11,8 35 19 46 25 NE 1026,4 34 0,0
27.05.2018 16:00:00 15,3 11,9 29 16 42 23 NE 1026,8 31 0,0
27.05.2018 15:00:00 15,2 12,0 27 15 36 20 NE 1027,1 34 0,0
27.05.2018 14:00:00 16,0 12,6 28 15 35 19 NE 1027,4 38 0,0
27.05.2018 13:00:00 16,0 12,9 25 13 36 20 NE 1027,3 31 0,0
27.05.2018 12:00:00 15,7 13,0 28 15 36 20 NE 1027,4 27 0,0
27.05.2018 11:00:00 14,7 13,1 24 13 32 17 NE 1027,0 24 0,2
27.05.2018 10:00:00 14,1 12,7 27 14 36 19 ENE 1026,5 24 0,0
27.05.2018 09:00:00 14,5 12,5 27 14 36 20 NE 1026,1 25 0,0
27.05.2018 08:00:00 14,9 12,4 24 13 36 20 NE 1025,7 26 0,0
27.05.2018 07:00:00 14,4 12,9 22 12 28 15 NE 1025,6 20 -
27.05.2018 06:00:00 14,1 12,8 14 7 21 12 NE 1025,4 18 0,0
27.05.2018 05:00:00 13,2 12,3 14 8 19 10 NE 1025,4 12 0,0
27.05.2018 04:00:00 14,0 12,9 13 7 22 12 NE 1025,4 12 0,0
27.05.2018 03:00:00 13,4 12,6 13 7 24 13 NE 1025,4 8 0,0
27.05.2018 02:00:00 13,5 12,7 14 8 24 13 NE 1025,9 6 0,0
27.05.2018 01:00:00 13,4 12,8 16 9 23 12 NE 1025,9 7 0,0
27.05.2018 00:00:00 13,3 12,5 14 8 22 12 NE 1025,8 9 0,0
26.05.2018 23:00:00 13,1 12,5 15 8 24 13 NE 1025,8 11 0,0
26.05.2018 22:00:00 13,1 12,5 16 9 28 15 NE 1026,0 10 0,0
26.05.2018 21:00:00 14,4 13,4 20 11 28 15 ENE 1025,7 14 0,0
26.05.2018 20:00:00 14,8 13,2 16 9 30 16 NE 1025,4 32 0,0
26.05.2018 19:00:00 15,6 14,0 22 12 32 17 ENE 1025,6 31 0,0
26.05.2018 18:00:00 15,3 14,0 24 13 37 20 ENE 1026,0 22 0,0
26.05.2018 17:00:00 15,4 14,1 27 15 37 20 ENE 1025,5 20 0,0
26.05.2018 16:00:00 16,0 14,2 29 16 37 20 ENE 1026,1 24 0,0
26.05.2018 15:00:00 16,1 14,8 26 14 34 18 NE 1026,3 19 0,1
26.05.2018 14:00:00 14,7 13,6 11 6 21 11 N 1026,7 13 0,6
26.05.2018 13:00:00 14,9 13,6 17 9 21 11 NE 1026,8 14 0,2
26.05.2018 12:00:00 14,8 13,3 11 6 22 12 NE 1026,5 22 0,1
26.05.2018 11:00:00 14,0 13,0 10 6 33 18 ENE 1026,5 10 1,3
26.05.2018 10:00:00 14,4 12,9 21 11 45 25 ENE 1026,3 20 0,6
26.05.2018 09:00:00 13,8 12,5 29 15 45 25 NE 1025,6 18 0,0
26.05.2018 08:00:00 13,7 12,4 23 12 45 24 NNE 1024,9 26 1,5
26.05.2018 07:00:00 13,8 12,4 21 12 41 22 N 1024,8 20 2,7
26.05.2018 06:00:00 14,3 11,3 24 13 38 20 NE 1024,8 42 0,0
26.05.2018 05:00:00 14,2 11,4 29 16 42 23 NE 1024,8 39 0,0
26.05.2018 04:00:00 14,1 11,4 29 16 43 23 NE 1024,8 38 0,0
26.05.2018 03:00:00 14,2 11,9 22 12 44 24 NNE 1024,6 50 0,0
26.05.2018 02:00:00 13,8 11,5 35 19 44 24 NE 1025,5 19 0,1
26.05.2018 01:00:00 14,4 10,2 25 14 38 21 NE 1025,7 50 0,0
26.05.2018 00:00:00 14,7 10,3 24 13 38 21 NE 1025,9 45 0,0
25.05.2018 23:00:00 14,1 10,1 29 15 38 20 NE 1025,7 50 0,0
25.05.2018 22:00:00 14,2 10,4 29 16 37 20 NE 1025,8 50 0,0
25.05.2018 21:00:00 15,0 10,2 29 16 39 21 NE 1025,5 50 0,0
25.05.2018 20:00:00 15,3 10,3 29 16 39 21 NE 1025,3 43 0,0
25.05.2018 19:00:00 15,7 11,7 29 16 39 21 NE 1025,6 38 0,0
25.05.2018 18:00:00 15,6 11,8 31 17 39 21 NE 1025,7 38 0,0
25.05.2018 17:00:00 16,9 11,6 30 16 42 23 NE 1025,8 30 0,0
25.05.2018 16:00:00 15,6 12,4 34 19 44 24 ENE 1026,1 28 0,0
25.05.2018 15:00:00 16,1 12,6 35 19 44 24 ENE 1026,3 38 0,0
25.05.2018 14:00:00 15,1 11,9 35 19 45 24 NE 1026,4 35 0,0
25.05.2018 13:00:00 16,0 11,8 35 19 47 26 NE 1026,5 35 0,0
25.05.2018 12:00:00 15,8 11,4 36 20 47 26 NE 1026,5 37 0,0
25.05.2018 11:00:00 16,0 10,1 34 18 42 23 NE 1026,7 36 0,0
25.05.2018 10:00:00 16,3 9,7 31 17 41 22 NNE 1026,6 38 0,0
25.05.2018 09:00:00 15,8 8,8 28 15 35 19 NE 1026,8 36 0,0
25.05.2018 08:00:00 14,9 8,8 18 10 29 16 NNE 1026,9 36 0,0
25.05.2018 07:00:00 12,7 8,8 18 10 29 16 NNE 1027,0 43 0,0
25.05.2018 06:00:00 11,3 7,6 18 10 23 12 NNE 1027,1 49 0,0
25.05.2018 05:00:00 7,6 6,9 14 7 20 11 N 1027,1 30 0,0
25.05.2018 04:00:00 7,7 6,5 16 9 20 11 N 1027,3 50 0,0
25.05.2018 03:00:00 8,4 6,4 10 5 16 9 N 1027,4 50 0,0
25.05.2018 02:00:00 8,7 7,0 10 5 13 7 NNE 1027,9 50 0,0
25.05.2018 01:00:00 7,9 6,8 12 7 14 8 NE 1028,0 49 0,0
25.05.2018 00:00:00 9,7 7,6 10 6 14 8 NE 1028,2 50 0,0
24.05.2018 23:00:00 10,0 6,7 13 7 16 9 NNE 1028,3 50 0,0
24.05.2018 22:00:00 10,4 7,1 10 6 19 10 NNE 1028,2 50 0,0
24.05.2018 21:00:00 12,0 7,3 13 7 28 15 NNE 1028,0 50 0,0
24.05.2018 20:00:00 13,7 9,3 16 9 36 19 NE 1027,8 50 0,0
24.05.2018 19:00:00 15,0 10,8 22 12 37 20 ENE 1027,9 46 0,0
24.05.2018 18:00:00 15,8 9,0 31 17 40 22 ENE 1028,1 35 0,0
24.05.2018 17:00:00 16,9 8,8 31 17 46 25 ENE 1028,5 42 0,0
24.05.2018 16:00:00 16,5 9,9 29 16 46 25 ENE 1028,9 40 0,0
24.05.2018 15:00:00 16,3 8,5 29 16 37 20 NE 1029,0 46 0,0
24.05.2018 14:00:00 15,3 10,1 27 15 42 23 ENE 1029,5 33 0,0
24.05.2018 13:00:00 15,6 10,4 33 18 42 23 ENE 1029,8 38 0,0
24.05.2018 12:00:00 16,4 9,3 29 16 37 20 NE 1030,0 35 0,0
24.05.2018 11:00:00 16,1 8,1 28 15 37 20 NE 1030,3 32 0,0
24.05.2018 10:00:00 15,6 8,6 23 12 31 17 NE 1030,2 38 0,0
24.05.2018 09:00:00 15,8 11,2 18 10 23 13 ENE 1029,9 37 0,0
24.05.2018 08:00:00 15,3 12,6 14 8 19 10 ENE 1029,7 35 0,0
24.05.2018 07:00:00 14,4 12,1 10 5 15 8 NE 1029,4 22 0,0
24.05.2018 06:00:00 12,5 11,4 8 5 23 12 NE 1029,3 8 0,0
24.05.2018 05:00:00 10,0 9,4 11 6 23 12 NNE 1028,8 3,9 0,0
24.05.2018 04:00:00 10,2 9,9 10 5 12 7 ENE 1028,4 4,5 0,0
24.05.2018 03:00:00 12,8 11,4 7 4 10 5 NE 1028,6 15 0,0
24.05.2018 02:00:00 13,7 12,3 4 2 10 5 W 1028,2 30 0,0
24.05.2018 01:00:00 13,3 12,0 6 3 9 5 SW 1027,8 34 0,0
24.05.2018 00:00:00 13,1 12,2 4 2 10 5 SSE 1027,5 13 0,0
23.05.2018 23:00:00 13,9 11,9 5 3 14 8 SW 1027,2 46 0,0
23.05.2018 22:00:00 14,2 11,9 8 4 16 9 SW 1026,6 50 0,0
23.05.2018 21:00:00 14,8 11,8 11 6 16 9 SW 1026,1 50 0,0
23.05.2018 20:00:00 15,4 11,2 8 4 15 8 SW 1025,7 46 0,0
23.05.2018 19:00:00 16,0 11,0 9 5 17 9 SW 1025,7 40 0,0
23.05.2018 18:00:00 16,2 10,9 9 5 17 9 SW 1025,6 48 0,0
23.05.2018 17:00:00 16,1 11,5 10 6 17 9 SW 1025,6 31 0,0
23.05.2018 16:00:00 16,8 11,7 9 5 19 10 SW 1025,5 39 0,0
23.05.2018 15:00:00 16,6 11,3 10 6 19 10 SSW 1025,3 30 0,0
23.05.2018 14:00:00 17,0 11,7 9 5 19 10 SW 1025,2 34 0,0
23.05.2018 13:00:00 16,5 11,4 11 6 19 10 SSW 1025,1 37 0,0
23.05.2018 12:00:00 16,1 11,1 11 6 17 9 SW 1024,6 39 0,0
23.05.2018 11:00:00 16,0 12,6 9 5 15 8 SW 1024,1 33 0,0
23.05.2018 10:00:00 14,9 12,0 9 5 14 8 SSW 1023,6 34 0,0
23.05.2018 09:00:00 14,5 12,0 9 5 13 7 SSW 1023,1 32 0,0
23.05.2018 08:00:00 14,0 11,5 8 5 11 6 SW 1022,4 37 0,0
23.05.2018 07:00:00 12,9 11,5 8 5 11 6 S 1021,7 25 0,0
23.05.2018 06:00:00 13,4 11,1 5 3 9 5 W 1020,9 39 0,0
23.05.2018 05:00:00 12,3 10,7 3 2 9 5 S 1020,7 48 0,0
23.05.2018 04:00:00 12,6 10,3 3 2 13 7 SW 1020,4 50 0,0
23.05.2018 03:00:00 12,8 10,3 7 4 13 7 W 1020,0 50 0,0
23.05.2018 02:00:00 12,6 10,3 7 4 11 6 W 1019,9 50 0,0
23.05.2018 01:00:00 12,6 10,0 6 3 12 6 W 1019,9 50 0,0
23.05.2018 00:00:00 12,7 10,1 7 4 12 6 W 1019,8 50 0,0
22.05.2018 23:00:00 12,7 9,9 3 2 10 6 W 1019,4 50 0,0
22.05.2018 22:00:00 12,4 9,9 4 2 14 8 SW 1019,3 49 0,0
22.05.2018 21:00:00 13,3 10,1 10 5 16 9 SE 1018,7 50 0,0
22.05.2018 20:00:00 13,8 10,6 11 6 18 10 SE 1018,6 47 0,0
22.05.2018 19:00:00 14,1 11,1 14 8 18 10 ESE 1018,4 36 0,0
22.05.2018 18:00:00 14,4 10,6 13 7 18 10 E 1018,6 46 0,0
22.05.2018 17:00:00 15,3 10,5 15 8 18 10 E 1018,6 42 0,0
22.05.2018 16:00:00 15,3 10,5 13 7 18 10 E 1018,7 38 0,0
22.05.2018 15:00:00 15,3 9,9 14 7 21 12 E 1019,0 37 0,0
22.05.2018 14:00:00 14,4 10,4 15 8 21 12 E 1019,4 39 0,0
22.05.2018 13:00:00 14,3 11,3 17 9 22 12 E 1019,5 38 0,0
22.05.2018 12:00:00 14,6 11,2 16 9 24 13 ENE 1019,5 32 0,0

tt = Température de l'air
td = dewpoint
ff = Vitesse du vent
fx = gusts
dd = Direction du vent
ppp = reduced air pressure
vv = visibility
rr = Quantités de précipitations

stations d'obs. à proximité